KE6AFE Weather Reports


time (UTC)temp
F
wind
direction
speed
knots
gust
knots
rain 1hr
in
rain 24hr
in
rain mn
in
humidity
%
barometer
mb
20260510230616 79 1 0.0 0.0 0.00 0.00 0.00 45 1014.7
20260510225606 79 1 0.0 0.0 0.00 0.00 0.00 46 1014.8
20260510224556 78 0 0.0 0.0 0.00 0.00 0.00 46 1015.0
20260510223546 78 0 0.0 0.0 0.00 0.00 0.00 47 1015.0
20260510222536 77 1 0.0 0.0 0.00 0.00 0.00 48 1015.1
20260510221526 77 0 0.0 0.0 0.00 0.00 0.00 49 1015.2
20260510220516 76 1 0.0 0.0 0.00 0.00 0.00 49 1015.3
20260510215506 76 1 0.0 0.0 0.00 0.00 0.00 50 1015.4
20260510214456 76 1 0.0 0.0 0.00 0.00 0.00 50 1015.4
20260510213446 75 1 0.0 0.0 0.00 0.00 0.00 51 1015.6
20260510212436 75 1 0.0 0.0 0.00 0.00 0.00 52 1015.6
20260510211426 74 1 0.0 0.0 0.00 0.00 0.00 52 1015.7
20260510210416 74 1 0.0 0.0 0.00 0.00 0.00 54 1015.8
20260510205406 73 1 0.0 0.0 0.00 0.00 0.00 55 1015.7
20260510204356 72 1 0.0 0.0 0.00 0.00 0.00 55 1015.8
20260510203345 72 1 0.0 0.0 0.00 0.00 0.00 56 1015.9
20260510202335 71 1 0.0 0.0 0.00 0.00 0.00 57 1016.0
20260510201325 70 1 0.0 0.0 0.00 0.00 0.00 59 1016.1
20260510200315 70 1 0.0 0.0 0.00 0.00 0.00 59 1016.2
20260510195306 69 1 0.0 0.0 0.00 0.00 0.00 59 1016.2
20260510194255 68 1 0.0 0.0 0.00 0.00 0.00 60 1016.2
20260510193245 68 1 0.0 0.0 0.00 0.00 0.00 60 1016.4
20260510192235 67 2 0.0 0.0 0.00 0.00 0.00 61 1016.3
20260510191225 67 1 0.0 0.0 0.00 0.00 0.00 61 1016.3
20260510190215 66 1 0.0 0.0 0.00 0.00 0.00 61 1016.5
20260510185205 66 2 0.0 0.0 0.00 0.00 0.00 62 1016.6
20260510184155 65 1 0.0 0.0 0.00 0.00 0.00 64 1016.6
20260510183145 64 2 0.0 0.0 0.00 0.00 0.00 64 1016.6
20260510182136 64 1 0.0 0.0 0.00 0.00 0.00 65 1016.7
20260510181125 63 2 0.0 0.0 0.00 0.00 0.00 65 1016.7
20260510180115 63 1 0.0 0.0 0.00 0.00 0.00 65 1016.7
20260510175105 63 1 0.0 0.0 0.00 0.00 0.00 65 1016.8
20260510174055 63 1 0.0 0.0 0.00 0.00 0.00 65 1016.8
20260510173045 63 1 0.0 0.0 0.00 0.00 0.00 66 1016.7
20260510172035 63 2 0.0 0.0 0.00 0.00 0.00 66 1016.6
20260510171025 62 1 0.0 0.0 0.00 0.00 0.00 68 1016.4
20260510170015 61 1 0.0 0.0 0.00 0.00 0.00 69 1016.5
20260510165005 61 1 0.0 0.0 0.00 0.00 0.00 69 1016.5
20260510163955 61 1 0.0 0.0 0.00 0.00 0.00 69 1016.5
20260510162945 61 2 0.0 0.0 0.00 0.00 0.00 69 1016.4
20260510161935 61 2 0.0 0.0 0.00 0.00 0.00 69 1016.3
20260510160925 61 1 0.0 0.0 0.00 0.00 0.00 69 1016.2
20260510155915 60 1 0.0 0.0 0.00 0.00 0.00 69 1016.2
20260510154905 59 1 0.0 0.0 0.00 0.00 0.00 72 1016.2
20260510153855 58 2 0.0 0.0 0.00 0.00 0.00 73 1016.1
20260510152845 57 2 0.0 0.0 0.00 0.00 0.00 75 1016.1
20260510151835 56 2 0.0 0.0 0.00 0.00 0.00 76 1016.0
20260510150825 56 2 0.0 0.0 0.00 0.00 0.00 74 1016.0
20260510145815 55 2 0.0 0.0 0.00 0.00 0.00 73 1016.0
20260510144805 55 2 0.0 0.0 0.00 0.00 0.00 74 1015.9
20260510143755 55 2 0.0 0.0 0.00 0.00 0.00 74 1016.0
20260510142745 55 2 0.0 0.0 0.00 0.00 0.00 75 1015.9
20260510141735 55 2 0.0 0.0 0.00 0.00 0.00 75 1015.8
20260510140725 55 2 0.0 0.0 0.00 0.00 0.00 75 1015.7
20260510135715 55 2 0.0 0.0 0.00 0.00 0.00 75 1015.5
20260510134705 54 2 0.0 0.0 0.00 0.00 0.00 75 1015.5
20260510133655 54 2 0.0 0.0 0.00 0.00 0.00 75 1015.3
20260510132645 54 2 0.0 0.0 0.00 0.00 0.00 75 1015.2
20260510131635 54 2 0.0 0.0 0.00 0.00 0.00 75 1015.1
20260510130625 54 2 0.0 0.0 0.00 0.00 0.00 75 1015.1
20260510125615 54 1 0.0 0.0 0.00 0.00 0.00 76 1015.1
20260510124605 54 2 0.0 0.0 0.00 0.00 0.00 76 1015.1
20260510123555 54 2 0.0 0.0 0.00 0.00 0.00 76 1015.1
20260510122545 54 2 0.0 0.0 0.00 0.00 0.00 76 1015.1
20260510121535 54 2 0.0 0.0 0.00 0.00 0.00 76 1015.1
20260510120525 53 1 0.0 0.0 0.00 0.00 0.00 76 1015.1
20260510115515 53 2 0.0 0.0 0.00 0.00 0.00 75 1015.1
20260510114505 53 2 0.0 0.0 0.00 0.00 0.00 75 1015.1
20260510113455 53 3 0.0 0.0 0.00 0.00 0.00 75 1015.1
20260510112445 53 2 0.0 0.0 0.00 0.00 0.00 74 1015.1
20260510111435 53 1 0.0 0.0 0.00 0.00 0.00 74 1015.0
20260510110425 53 2 0.0 0.0 0.00 0.00 0.00 73 1015.0
20260510105415 53 2 0.0 0.0 0.00 0.00 0.00 73 1015.0
20260510104405 53 2 0.0 0.0 0.00 0.00 0.00 73 1014.9
20260510103355 54 2 0.0 0.0 0.00 0.00 0.00 73 1015.0
20260510102345 54 2 0.0 0.0 0.00 0.00 0.00 73 1015.1
20260510101335 54 2 0.0 0.0 0.00 0.00 0.00 73 1015.1
20260510100325 54 2 0.0 0.0 0.00 0.00 0.00 73 1015.0
20260510095315 54 2 0.0 0.0 0.00 0.00 0.00 73 1015.0
20260510094305 54 2 0.0 0.0 0.00 0.00 0.00 73 1015.0
20260510093255 54 1 0.0 0.0 0.00 0.00 0.00 73 1015.1
20260510092245 55 2 0.0 0.0 0.00 0.00 0.00 72 1015.1
20260510091235 55 2 0.0 0.0 0.00 0.00 0.00 72 1015.3
20260510090225 55 2 0.0 0.0 0.00 0.00 0.00 71 1015.2
20260510085215 55 2 0.0 0.0 0.00 0.00 0.00 71 1015.2
20260510084205 56 2 0.0 0.0 0.00 0.00 0.00 71 1015.4
20260510083155 56 2 0.0 0.0 0.00 0.00 0.00 71 1015.5
20260510082145 56 2 0.0 0.0 0.00 0.00 0.00 71 1015.5
20260510081135 57 2 0.0 0.0 0.00 0.00 0.00 70 1015.4
20260510080125 57 2 0.0 0.0 0.00 0.00 0.00 70 1015.5
20260510075115 57 2 0.0 0.0 0.00 0.00 0.00 71 1015.6
20260510074105 58 2 0.0 0.0 0.00 0.00 0.00 70 1015.6
20260510073055 58 2 0.0 0.0 0.00 0.00 0.00 70 1015.6
20260510072045 58 2 0.0 0.0 0.00 0.00 0.00 71 1015.6
20260510071035 58 2 0.0 0.0 0.00 0.00 0.00 72 1015.6
20260510070025 58 1 0.0 0.0 0.00 0.00 0.00 72 1015.7
20260510065015 59 2 0.0 0.0 0.00 0.00 0.00 72 1015.7
20260510064005 59 2 0.0 0.0 0.00 0.00 0.00 71 1015.8
20260510062955 59 2 0.0 0.0 0.00 0.00 0.00 71 1015.9
20260510061945 59 2 0.0 0.0 0.00 0.00 0.00 70 1015.9
20260510060935 59 2 0.0 0.0 0.00 0.00 0.00 70 1015.9
20260510055925 60 2 0.0 0.0 0.00 0.00 0.00 70 1015.9
20260510054915 60 2 0.0 0.0 0.00 0.00 0.00 70 1015.9
20260510053905 60 1 0.0 0.0 0.00 0.00 0.00 70 1015.9
20260510052855 60 2 0.0 0.0 0.00 0.00 0.00 69 1016.0
20260510051845 61 1 0.0 0.0 0.00 0.00 0.00 69 1015.9
20260510050835 61 2 0.0 0.0 0.00 0.00 0.00 68 1015.8
20260510045825 62 2 0.0 0.0 0.00 0.00 0.00 67 1015.8
20260510044815 62 1 0.0 0.0 0.00 0.00 0.00 66 1015.7
20260510043805 62 2 0.0 0.0 0.00 0.00 0.00 66 1015.7
20260510042755 63 1 0.0 0.0 0.00 0.00 0.00 64 1015.6
20260510041745 63 1 0.0 0.0 0.00 0.00 0.00 64 1015.5
20260510040735 63 1 0.0 0.0 0.00 0.00 0.00 64 1015.4
20260510035725 64 1 0.0 0.0 0.00 0.00 0.00 63 1015.4
20260510034715 64 1 0.0 0.0 0.00 0.00 0.00 63 1015.3
20260510033705 64 1 0.0 0.0 0.00 0.00 0.00 63 1015.3
20260510032655 65 1 0.0 0.0 0.00 0.00 0.00 62 1015.2
20260510031645 65 1 0.0 0.0 0.00 0.00 0.00 62 1015.2
20260510030635 66 1 0.0 0.0 0.00 0.00 0.00 61 1015.2
20260510025625 66 1 0.0 0.0 0.00 0.00 0.00 60 1015.1
20260510024615 67 1 0.0 0.0 0.00 0.00 0.00 59 1015.1
20260510023605 68 1 0.0 0.0 0.00 0.00 0.00 58 1015.1
20260510022555 69 1 0.0 0.0 0.00 0.00 0.00 56 1015.0
20260510021545 70 1 0.0 0.0 0.00 0.00 0.00 55 1015.0
20260510020535 70 0 0.0 0.0 0.00 0.00 0.00 55 1015.0
20260510015525 71 0 0.0 0.0 0.00 0.00 0.00 53 1015.1
20260510014515 71 0 0.0 0.0 0.00 0.00 0.00 53 1015.1
20260510013505 72 0 0.0 0.0 0.00 0.00 0.00 52 1015.1
20260510012455 72 0 0.0 0.0 0.00 0.00 0.00 52 1015.1
20260510011445 73 0 0.0 0.0 0.00 0.00 0.00 51 1014.9
20260510010435 73 0 0.0 0.0 0.00 0.00 0.00 50 1015.0
20260510005425 74 1 0.0 0.0 0.00 0.00 0.00 49 1015.0
20260510004415 75 1 0.0 0.0 0.00 0.00 0.00 48 1015.0
20260510003405 75 1 0.0 0.0 0.00 0.00 0.00 47 1015.0
20260510002355 76 0 0.0 0.0 0.00 0.00 0.00 47 1014.9
20260510001345 77 1 0.0 0.0 0.00 0.00 0.00 46 1014.9
20260510000335 77 1 0.0 0.0 0.00 0.00 0.00 45 1014.8
20260509235325 78 0 0.0 0.0 0.00 0.00 0.00 45 1014.8
20260509234315 78 1 0.0 0.0 0.00 0.00 0.00 45 1014.8
20260509233305 77 1 0.0 0.0 0.00 0.00 0.00 46 1014.9
20260509232255 77 0 0.0 0.0 0.00 0.00 0.00 46 1014.9